Location: Zapote
(9.9191°N, 84.0597°W)
Time: 03:42:55
(UTC-06:00)

Hubble Space Telescope - Pass Details

Date: 31 January 2021
Orbit: 536 x 539 km, 28.5° (Epoch: 28 February)

Event Time Altitude Azimuth Distance (km) Brightness Sun altitude
Rises 18:06:24 0° 297° (WNW) 2,668 5.1 -6.8°
Reaches altitude 10° 18:08:39 10° 296° (WNW) 1,778 4.2 -7.4°
Maximum altitude 18:12:46 81° 209° (SSW) 542 0.8 -8.3°
Drops below altitude 10° 18:16:53 10° 122° (ESE) 1,781 3.0 -9.3°
Enters shadow 18:18:20 - 121° (ESE) 2,350 3.6 -9.6°
